Home   Weather   Spa   Past weeks

Flag for Belgium Past Weather in Spa, Belgium — Yesterday and Last 2 Weeks

Now
38 °F

Clear.


Feels Like: 33 °F
Forecast: 24 / 42 °F
Wind: 7 mph from Southeast

Location: Spa / La Sauveniere

Current Time: Dec 5, 2016 at 7:35:30 pm

Latest Report: Dec 5, 2016 at 7:00 pm


Visibility: 14 mi

Pressure: 30.34 "Hg

Humidity: 73%

Dew Point: 30 °F

Location of SpaLocation

Past Weather in Spa — Graph

°F

Spa Temperature Yesterday

Maximum temperature yesterday: 42 °F (at 2:00 pm)
Minimum temperature yesterday: 29 °F (at 1:00 am)
Average temperature yesterday: 33 °F

High & Low Weather Summary for the Past Weeks

 TemperatureHumidityPressure
High59 °F (Nov 23, 9:00 pm)100% (Nov 27, 9:00 am)30.59 "Hg (Nov 27, 9:00 am)
Low25 °F (Nov 29, 9:00 am)20% (Dec 4, 1:00 pm)29.47 "Hg (Nov 21, 3:00 pm)
Average40 °F77%30.16 "Hg
* Reported Nov 20 6:00 pm — Dec 5 6:00 pm, Spa, Weather by CustomWeather, © 2016

Note: Actual official high and low records may vary slightly from our data, if they occured in-between our weather recording intervals... More about our weather records

Advertising

Spa Weather History for the Previous 24 Hours

Scroll right to see more
 ConditionsComfort  
Time TempWeatherWind HumidityBarometerVisibility
6:00 pm
Mon, Dec 5
39 °FClear.6 mph70%30.33 "Hg15 mi
5:00 pm40 °FClear.6 mph68%30.32 "Hg17 mi
4:00 pm43 °FSunny.5 mph63%30.30 "Hg17 mi
3:00 pm45 °FSunny.5 mph59%30.29 "Hg16 mi
2:00 pm46 °FSunny.5 mph55%30.29 "Hg19 mi
1:00 pm45 °FSunny.7 mph56%30.29 "Hg19 mi
12:00 pm44 °FSunny.6 mph58%30.30 "Hg22 mi
11:00 am38 °FSunny.7 mph62%30.33 "Hg19 mi
10:00 am34 °FSunny.8 mph74%30.34 "Hg19 mi
9:00 am32 °FSunny.8 mph75%30.33 "Hg18 mi
8:00 am33 °FClear.9 mph69%30.32 "Hg19 mi
7:00 am32 °FClear.9 mph68%30.32 "Hg19 mi
6:00 am32 °FClear.9 mph66%30.31 "Hg22 mi
5:00 am33 °FClear.9 mph64%30.31 "Hg19 mi
4:00 am32 °FClear.9 mph64%30.32 "Hg19 mi
3:00 am33 °FClear.9 mph62%30.32 "Hg19 mi
2:00 am32 °FClear.9 mph60%30.32 "Hg22 mi
1:00 am32 °FClear.9 mph58%30.32 "Hg22 mi
12:00 am31 °FClear.10 mph60%30.33 "Hg22 mi
11:00 pm
Sun, Dec 4
31 °FClear.8 mph55%30.33 "Hg25 mi
10:00 pm31 °FClear.9 mph52%30.31 "Hg25 mi
7:00 pm35 °FClear.8 mph36%30.28 "Hg28 mi
Weather by CustomWeather, © 2016

See weather overviewHow to use our weather pages